Back to catalog

STPSAT-5

AliveScienceSSO
NORAD 43762·PAYLOAD·🇺🇸 United States

Launched Dec 3, 2018 from Vandenberg Space Force Base

Loading…

Next Passes (next 24 hours)

TLE

FreshSource: Space-Track

Epoch: Sep 14, 2026, 14:00 UTC

1 43762U 18099E   26257.58364846  .00003105  00000-0  17288-3 0  9993
2 43762  97.3998 304.9315 0004060  48.4811 311.6769 15.14342273426399

Track STPSAT-5 in real time with AllMySat

Download on the App Store